Retour au catalogue

YUNYAO-1 31

ActifMétéoSSO
NORAD 61894·PAYLOAD·🇨🇳 China
Ce nom de satellite n'a pas encore été confirmé par des sources officielles.

Lancé Nov 11, 2024 depuis Jiuquan Satellite Launch Center

Loading…

Prochains Passages (prochaines 24 heures)

TLE

FraisSource: Space-Track

Époque: Sep 14, 2026, 15:07 UTC

1 61894U 24205A   26257.63046572  .00004816  00000-0  27649-3 0  9996
2 61894  97.4050 325.1151 0015495 203.6074 156.4448 15.12889688101728

Suivez YUNYAO-1 31 en temps réel avec AllMySat

Download on the App Store